Content
SEND FEEDBACK

Daily
Averages
Monthly
Summary
Netherlands

HAARLEM, NETHERLANDS


Home > Europe > Netherlands
Elevation: 62 feet     Latitude: 52 28N     Longitude: 004 35E

WEATHER
 
SELECT A DAY
Number of Records: 309,412;   Date Range: 7/1/96 - 10/20/14
 
SHARE

PRINT THIS DATA

[ ← Previous Day ]
WEATHER ALMANAC - DECEMBER 8, 2013
[ Next Day → ]
[ °C ]   °F
Weather ElementAverageHighLow
Temperature48 °F50 °F (12:25 pm)44.6 °F (3:55 am)
Dewpoint44.5 °F46.4 °F (5:25 pm)42 °F (1:00 am)
Humidity87.1 %100 % (3:55 am)79 % (4:00 pm)
Barometer30.18 in30.21 in (1:00 am)30.15 in (7:55 am)
Wind Speed16.9 mph26.5 mph (11:25 pm)
Wind Gust36.8 mph (8:55 pm)
Weather ElementAverage
Visibility7.3 mi
Wind DirectionWSW (243.3 °)

Weather ElementTotal
Precipitation---
Heating Degree Days17.7 (Base 65)
Averaged from 55 records on December 8, 2013
WEATHER CONDITIONS BREAKOUT
WIND DIRECTION BREAKOUT
WEATHER BY HOUR - DECEMBER 8, 2013
[ °C ]   °F
Local TimeTemperatureDewpointHumidityBarometerVisibilityWind DirectionWind SpeedGust SpeedPrecipitationEventsConditions
12:55 AM46.4 °F42.8 °F87 %30.18 inWest (260°)11.5 mphClear
1:00 AM46.0 °F42.0 °F83 %30.21 in19.0 miWest (260°)11.2 mphPartly Cloudy
1:25 AM46.4 °F42.8 °F87 %30.18 inWSW (250°)9.2 mphClear
1:55 AM46.4 °F42.8 °F87 %30.18 inWSW (250°)10.4 mphClear
2:25 AM46.4 °F42.8 °F87 %30.18 in6.2 miWSW (240°)10.4 mphPartly Cloudy
2:55 AM46.4 °F42.8 °F87 %30.18 in6.2 miWSW (250°)12.7 mphRainLight Rain
3:25 AM46.4 °F44.6 °F93 %30.18 in6.2 miWSW (240°)10.4 mphRainLight Rain
3:55 AM44.6 °F44.6 °F100 %30.18 in6.2 miSW (230°)10.4 mphRainLight Rain
4:00 AM45.0 °F44.0 °F94 %30.20 in8.0 miSW (230°)8.9 mphRainLight Rain
4:25 AM44.6 °F42.8 °F93 %30.18 in6.2 miSW (230°)9.2 mphScattered Clouds
4:55 AM44.6 °F42.8 °F93 %30.18 in6.2 miSW (230°)9.2 mphMostly Cloudy
5:25 AM46.4 °F44.6 °F93 %30.18 in6.2 miWSW (240°)11.5 mphRainLight Rain
5:55 AM46.4 °F44.6 °F93 %30.18 in6.2 miWSW (250°)13.8 mphScattered Clouds
6:25 AM46.4 °F44.6 °F93 %30.18 in6.2 miWSW (250°)12.7 mphLight Drizzle
6:55 AM46.4 °F44.6 °F93 %30.18 in6.2 miWSW (250°)12.7 mphRainLight Rain
7:00 AM47.0 °F45.0 °F89 %30.19 in8.0 miWSW (250°)11.2 mphRainLight Rain Showers
7:25 AM46.4 °F44.6 °F93 %30.18 in5.6 miWSW (240°)13.8 mphRainLight Rain
7:55 AM46.4 °F44.6 °F93 %30.15 in6.2 miSW (230°)10.4 mphRainLight Rain
8:25 AM46.4 °F44.6 °F93 %30.15 in6.2 miSW (230°)11.5 mphRainLight Rain
8:55 AM46.4 °F44.6 °F93 %30.18 in6.2 miSW (230°)12.7 mphScattered Clouds
9:25 AM46.4 °F44.6 °F93 %30.18 in6.2 miWSW (240°)12.7 mphScattered Clouds
9:55 AM48.2 °F44.6 °F87 %30.18 in6.2 miWSW (240°)12.7 mphScattered Clouds
10:00 AM48.0 °F45.0 °F85 %30.21 in12.0 miWSW (240°)13.4 mphPartly Cloudy
10:25 AM48.2 °F44.6 °F87 %30.18 in6.2 miWSW (240°)15.0 mphPartly Cloudy
10:55 AM48.2 °F44.6 °F87 %30.18 in6.2 miWSW (240°)18.4 mphPartly Cloudy
11:25 AM48.2 °F44.6 °F87 %30.18 in6.2 miWSW (240°)17.3 mphScattered Clouds
11:55 AM48.2 °F44.6 °F87 %30.18 in6.2 miWSW (240°)17.3 mphPartly Cloudy
12:25 PM50.0 °F44.6 °F82 %30.18 in6.2 miWSW (250°)17.3 mphPartly Cloudy
12:55 PM50.0 °F44.6 °F82 %30.18 in6.2 miWSW (240°)17.3 mphPartly Cloudy
1:00 PM49.0 °F45.0 °F82 %30.20 in17.0 miWSW (240°)17.9 mphPartly Cloudy
1:25 PM50.0 °F44.6 °F82 %30.18 in6.2 miWSW (240°)18.4 mphPartly Cloudy
1:55 PM50.0 °F44.6 °F82 %30.15 in6.2 miWSW (250°)19.6 mphPartly Cloudy
2:25 PM50.0 °F44.6 °F82 %30.15 in6.2 miWSW (250°)19.6 mphPartly Cloudy
2:55 PM50.0 °F44.6 °F82 %30.15 in6.2 miWSW (240°)19.6 mph31.1 mphPartly Cloudy
3:25 PM48.2 °F44.6 °F87 %30.15 in6.2 miWSW (240°)20.7 mphPartly Cloudy
3:55 PM48.2 °F44.6 °F87 %30.15 in6.2 miWSW (240°)19.6 mphPartly Cloudy
4:00 PM49.0 °F45.0 °F79 %30.17 in12.0 miWSW (240°)20.1 mphOvercast
4:25 PM48.2 °F44.6 °F87 %30.15 in6.2 miWSW (240°)19.6 mphPartly Cloudy
4:55 PM48.2 °F44.6 °F87 %30.15 in6.2 miWSW (250°)20.7 mphPartly Cloudy
5:25 PM48.2 °F46.4 °F93 %30.15 in6.2 miWSW (250°)21.9 mphRainLight Rain
5:55 PM48.2 °F46.4 °F93 %30.18 in6.2 miWSW (240°)20.7 mphRainLight Rain
6:25 PM50.0 °F46.4 °F87 %30.15 in6.2 miWSW (250°)21.9 mphScattered Clouds
6:55 PM50.0 °F46.4 °F87 %30.18 in6.2 miWSW (250°)23.0 mphPartly Cloudy
7:00 PM49.0 °F46.0 °F83 %30.19 in12.0 miWSW (250°)22.4 mphRainDrizzle
7:25 PM48.2 °F44.6 °F87 %30.18 in6.2 miWSW (250°)19.6 mphPartly Cloudy
7:55 PM50.0 °F44.6 °F82 %30.18 in6.2 miWSW (250°)21.9 mphPartly Cloudy
8:25 PM50.0 °F44.6 °F82 %30.18 inWSW (250°)23.0 mphClear
8:55 PM50.0 °F44.6 °F82 %30.18 inWSW (240°)25.3 mph36.8 mphClear
9:25 PM50.0 °F44.6 °F82 %30.18 inWSW (250°)23.0 mphClear
9:55 PM50.0 °F44.6 °F82 %30.18 in6.2 miWSW (250°)23.0 mphPartly Cloudy
10:00 PM49.0 °F45.0 °F82 %30.20 in13.0 miWSW (250°)22.4 mphScattered Clouds
10:25 PM50.0 °F44.6 °F82 %30.18 inWSW (240°)23.0 mphClear
10:55 PM50.0 °F44.6 °F82 %30.18 in6.2 miWSW (240°)23.0 mphPartly Cloudy
11:25 PM50.0 °F44.6 °F82 %30.18 in6.2 miWSW (240°)26.5 mphPartly Cloudy
11:55 PM50.0 °F44.6 °F82 %30.18 in6.2 miWSW (240°)25.3 mphPartly Cloudy
Hourly data recorded from EHAM, located miles away from Haarlem, Netherlands







STORIES FROM OUR PARTNERS